Погода в Вунгтау

Вьетнам     10°22′21″N   107°05′52″E
темп.,
°C
ветер,
м/с
пор.,
м/с
влажн.,
%
обл.,
%
осадки,
мм/ч
давл.,
гПа
погр.,
м
17 августа, ср
ср1701:00+27зюз56805 0.4 1009378
04:00+27зюз578199 0.0 1008400
07:00+27зюз568353 0.0 1009393
10:00+28юз57799 0.0 1010681
13:00+29ю677974 0.1 1008369
16:00+29ююз7781100 1.1 1006377
19:00+28юз57826 3.1 1007472
22:00+28юз568331 1.9 1009430
18 августа, чт
чт1801:00+27зюз8108440 8.0 1008456
04:00+27з710868 4.2 1007446
07:00+27з68875 7.3 1008409
10:00+27з4681100 2.9 1009438
13:00+29юз2372100 3.4 1007181
16:00+29зюз5675100 1.7 1005476
19:00+29зюз4476100 2.4 100683
22:00+28зюз6981100 0.7 1008413
19 августа, пт
пт1901:00+28зюз6881100 0.9 1007466
04:00+27з7985100 0.7 1005515
07:00+27з688590 1.5 1007452
10:00+28з678199 0.0 1008613
13:00+29юз3476100 0.1 1005124
16:00+29зюз6875100 2.1 1004199
19:00+28зюз6980100 7.1 1005385
22:00+28з7981100 4.4 1007488
20 августа, сб
сб2001:00+27зюз81085100 10.1 1006468
04:00+27зюз81188100 6.4 1005504
07:00+27зюз71186100 6.6 1007588
10:00+28зюз6881100 1.4 1007854
13:00+29зюз687694 3.1 1004423
16:00+29з81076100 3.6 1004409
19:00+29зюз81177100 7.3 1005437
22:00+28зюз81280100 1.7 1007613
21 августа, вс
вс2101:00+27зюз81186100 4.0 1005519
04:00+27зюз71086100 6.6 1005488
07:00+27зюз71183100 7.8 1006690
10:00+28зюз6980100 3.1 1007848
13:00+29зюз5777100 3.9 1005395
16:00+29юз6978100 2.1 1004533
19:00+28юз7980100 5.1 1006569
22:00+28юз7982100 0.7 1008596